Temp_Advection
nan nan nan nan nan nan nan nan nan nan nan nan nan nan nan nan nan nan nan nan nan nan nan nan nan nan nan nan nan nan nan nan nan nan nan nan nan nan nan nan nan nan nan nan nan
nan -1 -1 -1 -1 -1 -1 -1 -1 -1 -0 -1 -1 -1 -1 -1 -1 -2 -1 0 0 0 0 0 0 0 0 0 0 0 -0 -0 -0 -0 0 -0 0 -0 -0 -0 -0 0 0 0 nan
nan -1 -1 -1 -1 -1 -0 -0 -1 -0 -0 -1 -1 -1 -1 -1 -1 -1 0 0 0 0 0 0 0 0 0 0 0 0 -0 0 0 0 0 -0 0 0 0 -0 -0 -1 -1 -0 nan
nan -0 -0 -0 -0 -1 -1 -0 -0 -0 -0 -0 -1 -0 -0 -1 -1 -0 0 0 0 0 0 0 0 0 0 -0 0 -0 -0 0 0 0 0 0 -0 -0 0 -0 -0 -1 -1 -2 nan
nan 0 0 -0 -0 -0 -0 -0 -0 -0 0 0 -0 -1 -0 -1 -3 -0 0 0 0 -0 -0 0 -0 0 0 0 -0 -0 -0 0 0 0 0 0 -0 0 0 0 0 1 1 1 nan
nan -0 -0 -0 -0 -0 -0 -0 -0 -0 -0 0 1 0 0 -1 -2 -0 0 0 0 0 0 -0 -0 -0 0 -0 -0 0 -0 0 0 0 -0 0 -0 0 -0 1 1 2 2 2 nan
nan -1 -1 -0 -0 -0 0 0 -0 -0 -0 -0 1 1 -1 -6 -0 0 0 0 0 0 0 0 0 0 -0 0 0 0 0 0 -0 -0 -0 0 -0 -0 0 1 1 1 2 1 nan
nan -0 -1 -1 -1 -1 -0 -0 -0 -1 -1 -0 1 0 -2 -1 1 -0 0 0 0 0 0 0 0 0 0 -0 0 0 0 -0 -0 0 -0 -0 -1 1 1 0 -0 0 0 0 nan
nan -0 -0 -1 -1 -2 -1 -0 -0 -0 -1 -0 0 0 -1 -1 -0 -0 0 0 0 0 0 0 0 0 0 0 -0 -0 -0 0 -0 0 0 0 -0 1 0 0 -0 -0 -0 -0 nan
nan -1 -0 -0 -1 -1 -2 -0 -0 0 -0 0 0 -1 -2 -0 -0 -0 0 0 0 0 0 0 0 0 0 0 0 -0 0 -0 0 0 0 0 0 0 -0 0 0 0 -0 -0 nan
nan -0 -0 -0 -0 -0 -2 -2 -1 -0 -0 -0 -0 -1 -1 -0 -0 -0 0 0 0 0 0 0 -0 0 -0 1 0 0 0 -0 0 -0 -0 -0 -1 0 0 0 0 -0 -0 -0 nan
nan -0 -1 -0 -0 0 -1 -2 -1 -1 -2 -4 -1 -1 -1 0 -1 -0 0 0 0 0 0 0 -0 0 0 0 0 0 0 0 0 -0 -0 -0 -0 1 -0 0 0 0 0 0 nan
nan -0 -1 -0 -0 -0 -1 0 1 0 -0 -1 -1 -1 -1 -0 -1 -1 -0 -0 0 0 0 -0 0 0 -0 -0 0 0 0 -0 -0 -0 -0 -0 -0 -0 0 0 0 0 0 0 nan
nan -0 -1 -1 -0 -0 -0 0 1 0 -0 -0 -0 0 -0 -0 -1 -1 -0 -0 0 0 0 -0 0 -0 0 -0 -0 -0 -0 -0 0 -0 -0 0 -0 -0 -0 0 -0 -0 0 0 nan
nan -0 -0 -0 -0 -0 0 0 0 -0 -0 -0 0 -0 0 -0 -0 -0 0 0 0 0 0 0 0 -0 -0 0 -0 -0 0 0 0 0 0 0 -0 0 0 -1 -0 -0 0 0 nan
nan 0 0 0 -0 0 0 0 -0 -0 -0 -1 -1 -0 -0 -0 -0 -0 0 0 -0 0 0 0 -0 -0 -0 0 0 -0 -0 -0 0 0 -0 0 -0 0 -0 -0 -0 1 0 0 nan
nan -0 0 0 -0 -0 0 0 -0 0 -0 -0 -1 -1 -0 -0 -0 -1 -1 -1 -0 1 0 0 -0 -0 0 -0 0 0 -0 -0 -0 -0 0 0 0 -0 -1 -1 -1 -1 -1 0 nan
nan -0 0 0 1 0 -0 -0 -0 -0 -1 -1 -0 -1 -1 -1 -0 -1 -0 -0 -1 -1 0 0 0 0 0 0 -0 0 0 -0 0 0 0 -0 0 -0 -0 -0 -1 -1 -1 -1 nan
nan -0 -1 0 0 0 -0 -0 0 -0 -0 -1 -1 -0 -1 -1 -1 -0 -1 -0 -0 -0 -0 -0 0 -0 0 0 0 0 0 0 -0 0 0 0 -0 0 -0 -1 -1 -1 -1 -1 nan
nan -0 -2 0 -0 -1 -1 0 0 -0 -0 -0 -1 -1 -1 -1 -1 -1 -1 -0 -0 -0 -1 -0 -0 0 -0 0 0 0 0 0 -0 -0 -0 0 0 -0 -0 -1 -1 -1 -1 -1 nan
nan -1 -1 0 -2 -4 -0 -0 -0 -1 -1 -0 0 -0 -0 0 -0 -0 -1 -0 -0 -0 -0 -0 -0 0 0 -0 0 0 1 0 -0 0 0 -0 0 0 -0 -0 -1 -1 -1 -1 nan
nan -0 0 -1 -3 -0 0 -0 -0 -1 -1 0 -0 -0 0 0 -0 -0 0 -0 -0 -0 -0 -0 -0 -0 0 0 -0 -0 -0 -0 0 1 0 0 -0 -0 -0 -1 -1 -1 -1 -1 nan
nan -0 -1 -3 -1 0 0 -0 -0 -1 -0 -0 -1 -0 -0 -0 -0 0 0 0 -0 -0 0 -0 0 -0 0 0 -0 -0 -0 -0 0 -0 0 1 0 -0 -0 -1 -1 -1 -1 -1 nan
nan -0 -1 -2 -0 0 -0 -0 -0 -0 -0 -0 -0 -0 -1 -0 -0 -0 0 -0 -0 -0 -0 -0 -0 -0 -0 -0 -0 -0 -0 -0 -0 0 0 -0 0 -0 -0 -1 -1 -1 -0 -0 nan
nan -0 -0 -0 -0 -0 0 -0 -0 -0 -0 -0 -0 -1 -0 -0 -0 -0 -0 -0 -0 -0 -0 -0 -0 -0 -0 -0 -0 -0 -0 -0 -0 -0 -0 0 -0 -0 -0 -0 -0 -0 -0 -0 nan
nan 0 -0 -0 -0 0 -0 -0 -0 -0 -0 -0 -0 -0 -0 -0 -0 -0 -1 -0 -0 -0 -0 -0 -0 -0 -0 -0 -0 -0 -0 -0 -0 -0 -0 0 0 -0 -0 -0 -0 -0 -0 -0 nan
nan nan nan nan nan nan nan nan nan nan nan nan nan nan nan nan nan nan nan nan nan nan nan nan nan nan nan nan nan nan nan nan nan nan nan nan nan nan nan nan nan nan nan nan nan
Wind_Speed
29 28 27 27 26 25 24 24 22 22 22 22 21 20 20 21 22 23 26 18 13 9 12 12 11 12 13 10 9 7 4 6 5 6 3 5 2 3 5 11 6 8 3 9 33
27 28 28 29 28 27 27 25 24 23 20 20 21 20 20 21 23 27 21 21 17 14 18 16 15 12 8 8 8 5 6 9 4 5 4 4 3 9 5 12 4 8 6 17 38
30 30 30 29 29 28 27 27 25 23 22 20 19 18 17 18 20 8 6 9 16 13 15 15 14 13 6 6 7 7 8 8 3 6 4 3 2 11 8 9 11 15 21 35 42
33 33 32 31 31 29 27 26 26 24 21 20 20 17 15 11 6 3 3 6 14 16 15 15 13 9 6 7 7 5 11 7 3 5 6 4 5 7 15 10 17 18 25 45 42
34 34 35 35 33 32 29 26 25 24 22 21 20 18 13 10 23 8 6 6 12 15 14 13 15 8 8 8 7 6 4 10 13 7 6 5 7 5 14 16 10 21 30 43 40
35 35 36 36 35 34 31 28 25 23 23 23 20 18 13 8 14 15 23 16 14 14 14 14 9 11 6 5 10 7 8 4 4 9 6 6 3 5 7 20 15 28 38 41 39
38 37 36 36 35 34 32 28 25 24 22 19 18 17 18 31 12 13 16 21 18 15 13 12 9 9 8 4 6 2 3 5 6 6 6 8 8 8 7 17 23 29 33 31 34
40 40 39 36 34 33 32 27 27 24 18 14 13 13 14 12 18 28 15 19 20 16 13 12 8 6 4 5 4 4 1 9 3 8 5 11 16 15 12 20 22 26 29 29 33
40 40 39 37 34 31 30 26 25 15 12 8 7 9 12 10 16 19 29 22 21 15 15 9 9 5 5 5 2 2 5 7 6 6 4 12 9 11 14 18 20 25 28 27 28
42 40 38 35 30 27 30 26 14 11 10 7 6 5 12 3 5 8 19 25 20 16 11 9 5 4 3 8 9 8 6 4 4 2 6 10 11 5 11 17 22 24 25 26 27
42 41 39 32 25 26 30 18 12 2 8 11 8 11 8 5 9 9 13 29 17 17 9 6 9 16 18 12 3 7 4 4 3 2 1 7 15 15 6 14 15 19 24 27 29
41 40 35 28 20 22 20 20 12 13 17 29 29 36 37 23 8 7 14 18 13 11 8 5 18 11 8 7 9 6 5 5 4 5 3 4 10 13 5 8 22 23 23 25 23
42 40 34 27 16 21 18 23 22 12 8 16 11 12 13 18 11 9 20 13 12 12 14 12 2 15 10 9 9 5 9 7 6 1 1 2 9 9 6 7 7 15 21 22 27
42 38 29 26 11 24 15 28 18 6 4 6 4 2 4 6 6 21 19 13 5 16 12 10 7 10 12 12 11 9 12 8 6 3 4 4 5 9 7 13 9 16 20 24 25
41 35 22 23 22 22 28 23 8 1 5 14 5 7 7 4 7 4 12 7 8 7 8 8 10 14 13 12 11 6 8 12 6 6 2 3 3 3 2 13 17 10 20 23 25
40 31 20 30 26 25 24 13 0 1 5 10 9 14 9 7 7 5 4 5 5 5 1 5 2 8 11 6 16 10 7 5 3 3 6 9 8 3 4 7 12 10 12 20 26
38 18 33 32 34 23 16 4 1 2 16 12 11 16 9 9 8 11 7 14 4 6 8 2 3 2 5 10 8 6 8 4 5 5 5 4 6 2 12 10 8 10 12 7 14
34 16 26 32 24 16 9 1 5 11 8 12 14 13 10 14 11 11 5 8 13 7 3 11 8 9 4 6 8 15 13 6 7 6 6 5 5 1 7 11 14 19 16 12 6
31 9 37 28 19 12 5 6 6 11 12 13 11 6 10 14 12 6 9 12 8 13 4 1 7 2 2 1 9 6 10 5 6 2 4 4 5 4 8 15 20 22 22 20 15
27 12 42 23 15 12 8 7 9 19 9 10 11 13 13 13 10 8 12 12 12 11 10 5 2 1 2 1 4 5 10 6 2 8 6 3 4 4 6 11 14 17 21 21 20
23 8 39 14 19 23 5 6 7 25 13 8 9 8 8 8 10 6 14 6 20 15 8 8 3 2 1 6 1 4 6 2 4 3 10 7 4 2 5 8 10 13 18 21 22
21 5 40 22 15 5 4 7 15 21 23 9 12 12 9 11 9 4 5 11 22 19 9 5 4 2 4 5 9 5 3 2 9 11 4 7 4 5 6 8 10 13 16 19 22
7 8 29 28 5 5 9 11 11 18 16 9 14 14 9 7 4 7 4 13 14 15 12 9 4 1 4 3 3 6 6 7 1 1 8 12 5 4 5 8 13 14 16 18 22
7 5 11 19 14 6 5 12 12 12 15 10 12 11 13 11 9 5 7 10 17 11 19 8 3 5 3 4 4 2 6 9 5 2 4 0 14 5 6 8 12 15 15 17 21
9 4 6 5 8 12 6 8 13 11 12 19 7 15 12 7 9 8 7 9 13 6 14 6 4 6 4 6 5 6 9 6 2 2 1 9 8 4 5 6 10 12 14 18 21
6 6 7 5 8 9 8 8 9 8 5 6 10 14 12 4 5 12 15 11 5 3 11 5 4 8 5 4 5 9 8 6 5 5 6 7 3 3 6 6 11 14 17 21 22
9 9 3 5 5 4 3 7 6 8 5 9 14 12 10 5 13 18 19 19 18 15 7 4 2 1 4 10 9 9 3 8 4 4 4 8 4 5 7 10 12 13 16 19 20
Wind_Direction
354 350 345 341 337 332 328 324 318 314 311 307 303 301 299 296 288 283 277 279 273 257 204 183 172 184 190 189 182 167 184 212 221 174 190 160 166 145 152 146 157 188 183 190 165
355 351 347 343 339 334 330 324 319 315 308 304 301 300 300 297 295 283 284 265 252 240 207 196 186 178 180 188 184 188 200 209 218 187 175 148 160 166 162 165 166 176 190 182 165
355 351 347 343 339 335 329 325 319 314 311 306 302 300 300 299 308 287 246 233 212 202 188 200 190 185 187 176 191 179 217 218 225 214 182 169 202 183 169 204 204 186 165 169 170
355 351 347 343 339 333 329 326 320 315 308 304 301 297 292 286 263 197 171 186 186 183 179 180 183 176 177 191 194 198 226 201 222 233 183 208 161 181 188 209 213 204 186 172 177
354 350 347 343 338 333 328 325 319 313 308 302 297 292 289 256 246 229 201 183 179 187 194 194 185 174 193 192 167 218 221 217 224 213 219 188 220 212 224 213 203 199 183 180 184
356 351 346 344 338 334 329 326 318 313 308 298 286 279 266 245 258 237 229 216 199 197 201 197 205 186 174 199 195 208 225 217 218 218 223 215 179 191 242 213 198 187 185 186 188
356 351 347 345 339 334 330 328 320 311 305 294 277 260 249 247 251 237 223 213 208 208 200 192 166 173 161 166 221 160 212 259 224 218 223 200 247 228 203 182 178 186 184 188 193
356 351 347 345 340 336 332 332 322 313 306 295 266 241 249 266 237 229 213 206 201 197 188 176 194 180 184 144 45 178 192 235 210 199 240 196 247 250 190 174 180 184 188 192 196
356 351 347 346 343 337 334 337 323 314 314 303 243 220 262 249 250 237 217 208 189 190 185 171 180 172 149 136 144 355 227 222 243 208 183 205 221 251 182 189 184 186 193 196 196
356 351 349 347 345 343 340 342 325 307 309 279 249 255 249 231 221 220 212 201 189 186 176 186 163 165 140 177 205 191 214 219 207 168 215 198 230 160 196 200 201 193 190 196 199
355 349 349 348 347 348 349 0 1 310 307 260 268 257 285 296 257 227 207 191 188 177 177 183 193 202 189 196 150 164 178 201 236 257 284 212 229 248 220 215 209 199 196 196 202
355 349 349 347 346 356 358 42 15 317 297 289 273 255 253 269 307 227 192 173 186 185 134 149 221 195 170 161 180 189 199 223 277 262 224 242 248 246 212 229 221 211 203 201 199
355 351 348 349 343 350 1 358 341 330 271 295 262 255 260 224 221 237 181 179 184 178 186 200 181 166 163 169 166 187 202 204 221 61 208 262 265 266 255 245 220 211 206 198 193
355 352 350 353 352 344 351 341 336 316 298 278 267 299 226 193 225 219 193 180 170 194 162 215 181 155 185 181 174 185 211 200 198 191 219 215 241 252 256 269 218 207 194 195 195
355 353 353 356 339 340 333 339 337 201 308 342 5 1 303 238 321 50 201 207 171 160 163 197 168 167 178 189 176 200 175 196 197 201 209 178 245 229 257 245 252 201 200 199 200
355 354 355 348 339 332 332 342 137 298 272 341 349 344 349 358 18 343 98 133 82 129 144 179 164 179 200 166 177 144 103 85 83 152 229 195 214 225 234 258 258 265 211 205 207
353 359 5 354 343 337 338 334 353 13 343 348 338 329 335 346 31 26 40 52 31 196 196 169 188 194 147 150 187 158 157 149 178 195 225 159 185 336 335 337 299 326 335 289 222
352 349 352 358 348 348 360 42 33 350 353 320 333 336 42 15 21 24 52 36 27 8 88 200 207 187 168 180 179 185 189 172 184 185 182 133 197 78 352 27 47 51 48 36 351
355 32 3 4 356 358 45 50 22 349 328 327 337 358 9 358 3 73 55 18 6 6 27 266 216 317 218 152 174 175 206 157 101 46 159 164 128 221 21 36 34 30 36 30 23
4 22 2 12 12 54 60 64 25 358 344 5 15 16 26 358 16 22 24 24 342 351 333 348 257 37 324 128 69 192 154 179 186 177 182 176 163 127 34 34 33 30 23 19 19
26 35 4 18 47 54 55 14 357 2 23 48 17 25 32 360 6 44 11 9 1 339 339 351 289 142 184 18 163 163 187 145 174 188 203 162 175 163 89 57 44 33 26 20 17
34 45 14 44 55 26 19 355 7 8 16 23 29 38 38 26 23 78 43 3 353 347 357 341 314 324 86 80 70 69 53 23 216 189 209 201 140 112 102 65 42 34 27 24 23
26 7 28 49 51 6 10 16 33 18 11 15 10 12 29 26 69 46 53 349 0 13 8 334 17 267 125 209 68 45 33 20 232 348 188 204 161 99 88 63 47 36 28 27 25
29 16 359 35 36 14 9 19 11 2 25 11 25 18 5 21 37 47 14 348 340 7 3 355 322 3 345 26 346 332 358 4 9 146 134 14 142 85 51 28 25 33 34 34 32
34 56 10 351 357 357 40 1 12 8 1 19 21 8 357 347 346 5 2 342 333 345 5 16 314 339 307 305 310 288 294 318 343 42 252 135 140 107 50 39 29 30 34 38 33
53 11 353 310 340 1 12 4 3 353 334 11 355 342 336 341 344 316 323 331 300 319 346 341 307 337 300 344 316 289 272 263 244 239 263 247 204 126 89 63 42 32 31 36 33
31 11 11 310 338 353 354 338 315 334 316 329 321 316 304 313 316 296 288 280 272 289 297 272 242 202 272 341 327 282 289 230 195 148 195 214 111 136 101 79 53 41 39 34 29
Height
1517 1514 1510 1507 1504 1500 1497 1494 1491 1489 1486 1484 1483 1482 1480 1478 1477 1475 1471 1474 1474 1473 1475 1477 1479 1481 1482 1484 1485 1486 1489 1491 1487 1490 1484 1484 1483 1485 1486 1487 1490 1491 1492 1495 1498
1516 1512 1508 1504 1501 1498 1495 1491 1488 1485 1483 1481 1479 1479 1477 1474 1472 1467 1468 1466 1468 1469 1472 1474 1476 1479 1480 1481 1483 1483 1484 1484 1480 1480 1481 1482 1483 1485 1487 1487 1488 1489 1491 1494 1498
1515 1510 1506 1502 1498 1494 1491 1488 1485 1482 1480 1477 1476 1475 1474 1472 1469 1460 1460 1460 1462 1466 1469 1472 1475 1477 1478 1478 1479 1479 1477 1477 1477 1479 1481 1481 1482 1483 1484 1487 1482 1483 1487 1492 1496
1514 1509 1504 1500 1495 1490 1487 1484 1481 1479 1476 1474 1472 1471 1471 1471 1470 1459 1459 1459 1460 1464 1467 1469 1472 1474 1475 1475 1475 1477 1474 1474 1475 1477 1479 1479 1479 1481 1481 1478 1479 1481 1483 1486 1491
1513 1508 1502 1497 1492 1488 1483 1480 1476 1474 1472 1470 1468 1467 1468 1467 1457 1459 1458 1459 1460 1462 1464 1467 1469 1471 1471 1471 1473 1474 1471 1471 1472 1474 1475 1476 1477 1477 1475 1475 1477 1480 1483 1486 1489
1511 1506 1501 1495 1489 1484 1480 1476 1471 1469 1467 1465 1463 1463 1465 1464 1452 1452 1454 1456 1458 1460 1461 1464 1465 1468 1469 1469 1469 1468 1469 1469 1470 1471 1472 1472 1475 1477 1470 1472 1475 1477 1479 1483 1488
1510 1504 1498 1492 1486 1481 1476 1472 1467 1463 1461 1459 1458 1457 1456 1444 1447 1448 1449 1452 1455 1457 1459 1461 1463 1465 1466 1468 1467 1467 1469 1468 1469 1468 1468 1470 1470 1469 1467 1469 1471 1474 1479 1483 1487
1508 1502 1496 1490 1483 1477 1472 1468 1463 1458 1456 1453 1452 1453 1446 1440 1439 1443 1446 1448 1451 1454 1457 1460 1462 1464 1464 1466 1467 1467 1469 1470 1465 1466 1466 1467 1465 1458 1463 1466 1468 1472 1477 1480 1484
1507 1500 1493 1487 1481 1474 1469 1465 1459 1456 1454 1452 1450 1450 1440 1434 1434 1437 1441 1444 1448 1452 1455 1458 1460 1461 1463 1464 1468 1471 1467 1471 1466 1462 1463 1464 1462 1454 1460 1464 1467 1468 1473 1478 1483
1505 1499 1492 1485 1479 1473 1467 1461 1456 1454 1454 1452 1450 1451 1435 1432 1431 1431 1434 1441 1445 1448 1453 1456 1457 1458 1462 1461 1465 1466 1470 1469 1464 1462 1462 1460 1457 1456 1458 1461 1462 1465 1470 1475 1480
1505 1497 1490 1484 1478 1473 1465 1460 1459 1457 1453 1451 1445 1436 1430 1430 1429 1429 1431 1437 1442 1444 1447 1451 1452 1450 1452 1455 1460 1462 1465 1465 1464 1463 1461 1461 1456 1449 1456 1459 1461 1464 1467 1470 1474
1503 1496 1489 1483 1478 1475 1471 1467 1475 1473 1452 1440 1435 1432 1427 1430 1431 1426 1429 1434 1436 1436 1443 1450 1444 1449 1454 1458 1459 1461 1463 1466 1464 1462 1462 1459 1456 1451 1455 1454 1453 1456 1462 1466 1473
1503 1494 1487 1482 1478 1476 1473 1473 1471 1468 1462 1432 1428 1425 1422 1425 1426 1422 1425 1427 1430 1435 1437 1438 1441 1445 1450 1458 1460 1463 1462 1464 1462 1462 1462 1462 1456 1451 1447 1449 1451 1454 1458 1463 1467
1501 1493 1486 1481 1479 1476 1474 1471 1468 1467 1462 1434 1427 1423 1421 1421 1419 1419 1421 1424 1428 1430 1437 1438 1439 1443 1445 1450 1452 1461 1457 1458 1461 1462 1463 1461 1459 1454 1446 1444 1446 1450 1453 1457 1462
1501 1493 1487 1482 1481 1477 1474 1469 1467 1467 1458 1431 1428 1426 1422 1422 1417 1415 1418 1420 1421 1425 1430 1430 1436 1439 1444 1442 1447 1449 1451 1455 1458 1460 1463 1464 1462 1444 1451 1443 1435 1441 1447 1451 1456
1500 1492 1488 1483 1479 1475 1470 1468 1468 1468 1461 1436 1434 1431 1425 1422 1419 1416 1415 1418 1422 1424 1426 1426 1431 1433 1430 1437 1440 1443 1452 1459 1464 1462 1463 1454 1455 1448 1445 1442 1437 1437 1444 1447 1450
1498 1493 1488 1482 1475 1471 1468 1467 1469 1473 1457 1451 1447 1439 1433 1432 1426 1426 1429 1434 1437 1427 1427 1429 1429 1427 1428 1435 1441 1440 1446 1457 1462 1463 1452 1456 1456 1447 1451 1448 1445 1442 1440 1442 1448
1497 1490 1489 1481 1475 1471 1469 1468 1473 1476 1470 1461 1455 1443 1444 1441 1436 1440 1442 1448 1448 1447 1434 1425 1431 1426 1425 1425 1429 1435 1434 1438 1450 1456 1448 1458 1452 1456 1457 1453 1447 1446 1444 1442 1444
1495 1491 1487 1480 1475 1471 1472 1486 1495 1488 1482 1471 1456 1461 1457 1450 1445 1447 1458 1464 1461 1458 1444 1439 1428 1427 1425 1425 1424 1435 1436 1433 1446 1457 1448 1449 1456 1459 1456 1451 1449 1448 1448 1448 1447
1497 1493 1488 1482 1476 1474 1478 1491 1494 1492 1482 1477 1475 1471 1470 1470 1462 1458 1466 1473 1469 1465 1461 1454 1435 1428 1427 1426 1428 1425 1429 1438 1442 1449 1450 1456 1454 1452 1460 1459 1458 1456 1455 1454 1451
1500 1499 1496 1487 1483 1482 1500 1502 1496 1494 1488 1489 1488 1484 1484 1483 1477 1479 1487 1474 1474 1467 1462 1459 1449 1430 1429 1436 1432 1429 1426 1432 1429 1434 1431 1448 1450 1458 1462 1464 1465 1465 1462 1459 1456
1508 1511 1505 1495 1495 1508 1512 1510 1506 1500 1494 1491 1489 1486 1487 1486 1487 1487 1492 1489 1481 1474 1471 1465 1459 1438 1440 1443 1440 1439 1442 1439 1422 1433 1432 1426 1456 1458 1463 1467 1468 1468 1466 1463 1460
1516 1517 1514 1502 1518 1520 1516 1513 1510 1506 1504 1499 1498 1495 1491 1490 1494 1490 1491 1488 1485 1479 1479 1471 1458 1442 1439 1443 1443 1446 1451 1449 1444 1439 1431 1430 1454 1459 1463 1467 1470 1469 1468 1465 1462
1523 1525 1522 1520 1526 1525 1520 1520 1516 1513 1511 1509 1508 1501 1496 1493 1493 1496 1494 1490 1486 1483 1480 1473 1467 1469 1453 1461 1465 1455 1455 1454 1449 1438 1442 1443 1452 1461 1464 1466 1468 1470 1470 1468 1464
1531 1537 1538 1537 1531 1530 1527 1526 1522 1519 1516 1515 1510 1512 1509 1501 1497 1497 1497 1494 1488 1485 1483 1482 1475 1473 1470 1468 1467 1464 1461 1459 1456 1453 1446 1452 1453 1465 1468 1470 1471 1471 1471 1468 1466
1538 1541 1540 1538 1535 1532 1531 1529 1527 1524 1522 1517 1518 1516 1512 1509 1507 1503 1499 1497 1492 1488 1489 1486 1480 1477 1466 1466 1466 1463 1460 1459 1459 1458 1455 1454 1458 1470 1471 1472 1472 1472 1470 1467 1466
1541 1542 1541 1539 1536 1533 1533 1532 1528 1527 1523 1521 1519 1517 1512 1509 1508 1504 1500 1496 1494 1492 1491 1489 1485 1483 1474 1469 1463 1455 1454 1455 1455 1456 1453 1452 1461 1470 1472 1473 1474 1474 1472 1470 1469